contact:dominique.lefevre@mio.osupytheas.fr, maurice.libes@osupytheas.fr, didier.mallarino@osupytheas.fr
Project:EMSO http://www.emso-fr.org/EMSO-France
Depth: 2436.0 m
Title:EMSO Ligure Ouest : Data MII capteur MICROCAT
DateTime_Computer,Latitude,Longitude,Temperature,Conductivity,Pressure,DateTime_Instrument
DateTime_Computer,Latitude,Longitude,degC,S m-1,dbar,DateTime_Instrument
2021-09-09T00:00:24Z,42.805,6.029,13.2986,4.60001,2470.404,2021-9-09T02:01:44Z
2021-09-09T00:03:27Z,42.805,6.029,13.2986,4.60002,2470.404,2021-9-09T02:04:48Z
2021-09-09T00:06:30Z,42.805,6.029,13.2990,4.60001,2470.404,2021-9-09T02:07:51Z
2021-09-09T00:09:33Z,42.805,6.029,13.2987,4.60002,2470.404,2021-9-09T02:10:54Z
2021-09-09T00:12:36Z,42.805,6.029,13.2990,4.60003,2470.437,2021-9-09T02:13:57Z
2021-09-09T00:15:40Z,42.805,6.029,13.2992,4.60001,2470.427,2021-9-09T02:17:00Z
2021-09-09T00:18:43Z,42.805,6.029,13.2985,4.60001,2470.39,2021-9-09T02:20:03Z
2021-09-09T00:21:46Z,42.805,6.029,13.2990,4.60001,2470.404,2021-9-09T02:23:06Z
2021-09-09T00:24:49Z,42.805,6.029,13.2990,4.60001,2470.39,2021-9-09T02:26:09Z
2021-09-09T00:27:52Z,42.805,6.029,13.2990,4.60004,2470.427,2021-9-09T02:29:12Z
2021-09-09T00:30:55Z,42.805,6.029,13.2986,4.60001,2470.404,2021-9-09T02:32:16Z
2021-09-09T00:33:58Z,42.805,6.029,13.2985,4.60002,2470.366,2021-9-09T02:35:19Z
2021-09-09T00:37:01Z,42.805,6.029,13.2989,4.60003,2470.366,2021-9-09T02:38:22Z
2021-09-09T00:40:04Z,42.805,6.029,13.2986,4.60002,2470.38,2021-9-09T02:41:25Z
2021-09-09T00:43:08Z,42.805,6.029,13.2992,4.60000,2470.38,2021-9-09T02:44:28Z
2021-09-09T00:46:11Z,42.805,6.029,13.2990,4.60002,2470.366,2021-9-09T02:47:31Z
2021-09-09T00:49:14Z,42.805,6.029,13.2991,4.60002,2470.38,2021-9-09T02:50:34Z
2021-09-09T00:52:17Z,42.805,6.029,13.2990,4.60001,2470.366,2021-9-09T02:53:37Z
2021-09-09T00:55:20Z,42.805,6.029,13.2991,4.60001,2470.366,2021-9-09T02:56:41Z
2021-09-09T00:58:23Z,42.805,6.029,13.2987,4.60003,2470.343,2021-9-09T02:59:44Z
2021-09-09T01:01:26Z,42.805,6.029,13.2988,4.60003,2470.357,2021-9-09T03:02:47Z
2021-09-09T01:04:29Z,42.805,6.029,13.2991,4.60001,2470.343,2021-9-09T03:05:50Z
2021-09-09T01:07:33Z,42.805,6.029,13.2992,4.60001,2470.32,2021-9-09T03:08:53Z
2021-09-09T01:10:36Z,42.805,6.029,13.2989,4.60001,2470.32,2021-9-09T03:11:56Z
2021-09-09T01:13:39Z,42.805,6.029,13.2990,4.60003,2470.334,2021-9-09T03:14:59Z
2021-09-09T01:16:42Z,42.805,6.029,13.2984,4.60004,2470.366,2021-9-09T03:18:02Z
2021-09-09T01:19:45Z,42.805,6.029,13.2991,4.60005,2470.357,2021-9-09T03:21:05Z
2021-09-09T01:22:48Z,42.805,6.029,13.2987,4.60002,2470.38,2021-9-09T03:24:09Z
2021-09-09T01:25:51Z,42.805,6.029,13.2987,4.60001,2470.357,2021-9-09T03:27:12Z
2021-09-09T01:28:54Z,42.805,6.029,13.2989,4.60001,2470.31,2021-9-09T03:30:15Z
2021-09-09T01:31:57Z,42.805,6.029,13.2990,4.60001,2470.357,2021-9-09T03:33:18Z
2021-09-09T01:35:01Z,42.805,6.029,13.2990,4.60001,2470.32,2021-9-09T03:36:21Z
2021-09-09T01:38:04Z,42.805,6.029,13.2991,4.60001,2470.357,2021-9-09T03:39:24Z
2021-09-09T01:41:07Z,42.805,6.029,13.2986,4.60001,2470.357,2021-9-09T03:42:27Z
2021-09-09T01:44:10Z,42.805,6.029,13.2990,4.60003,2470.334,2021-9-09T03:45:30Z
2021-09-09T01:47:13Z,42.805,6.029,13.2987,4.60000,2470.334,2021-9-09T03:48:34Z
2021-09-09T01:50:16Z,42.805,6.029,13.2986,4.60002,2470.343,2021-9-09T03:51:37Z
2021-09-09T01:53:19Z,42.805,6.029,13.2986,4.60001,2470.32,2021-9-09T03:54:40Z
2021-09-09T01:56:22Z,42.805,6.029,13.2989,4.60001,2470.297,2021-9-09T03:57:43Z
2021-09-09T01:59:26Z,42.805,6.029,13.2983,4.60002,2470.343,2021-9-09T04:00:46Z
2021-09-09T02:02:29Z,42.805,6.029,13.2991,4.60002,2470.343,2021-9-09T04:03:49Z
2021-09-09T02:05:32Z,42.805,6.029,13.2987,4.60002,2470.297,2021-9-09T04:06:52Z
2021-09-09T02:08:35Z,42.805,6.029,13.2991,4.60001,2470.343,2021-9-09T04:09:55Z
2021-09-09T02:11:38Z,42.805,6.029,13.2988,4.60001,2470.334,2021-9-09T04:12:58Z
2021-09-09T02:14:41Z,42.805,6.029,13.2991,4.60002,2470.334,2021-9-09T04:16:02Z
2021-09-09T02:17:44Z,42.805,6.029,13.2990,4.60002,2470.334,2021-9-09T04:19:05Z
2021-09-09T02:20:47Z,42.805,6.029,13.2986,4.60000,2470.297,2021-9-09T04:22:08Z
2021-09-09T02:23:50Z,42.805,6.029,13.2989,4.60001,2470.334,2021-9-09T04:25:11Z
2021-09-09T02:26:54Z,42.805,6.029,13.2990,4.60001,2470.334,2021-9-09T04:28:14Z
2021-09-09T02:29:57Z,42.805,6.029,13.2989,4.60003,2470.32,2021-9-09T04:31:17Z
2021-09-09T02:33:00Z,42.805,6.029,13.2988,4.60003,2470.297,2021-9-09T04:34:20Z
2021-09-09T02:36:03Z,42.805,6.029,13.2989,4.60002,2470.32,2021-9-09T04:37:23Z
2021-09-09T02:39:06Z,42.805,6.029,13.2991,4.60002,2470.297,2021-9-09T04:40:27Z
2021-09-09T02:42:09Z,42.805,6.029,13.2991,4.60001,2470.297,2021-9-09T04:43:30Z
2021-09-09T02:45:12Z,42.805,6.029,13.2989,4.60001,2470.334,2021-9-09T04:46:33Z
2021-09-09T02:48:15Z,42.805,6.029,13.2989,4.60003,2470.297,2021-9-09T04:49:36Z
2021-09-09T02:51:19Z,42.805,6.029,13.2990,4.60002,2470.297,2021-9-09T04:52:39Z
2021-09-09T02:54:22Z,42.805,6.029,13.2986,4.60002,2470.297,2021-9-09T04:55:42Z
2021-09-09T02:57:25Z,42.805,6.029,13.2989,4.60001,2470.357,2021-9-09T04:58:45Z
2021-09-09T03:00:28Z,42.805,6.029,13.2993,4.60001,2470.297,2021-9-09T05:01:48Z
2021-09-09T03:03:31Z,42.805,6.029,13.2986,4.60001,2470.273,2021-9-09T05:04:52Z
2021-09-09T03:06:34Z,42.805,6.029,13.2986,4.60002,2470.32,2021-9-09T05:07:55Z
2021-09-09T03:09:37Z,42.805,6.029,13.2990,4.60002,2470.297,2021-9-09T05:10:58Z
2021-09-09T03:12:40Z,42.805,6.029,13.2990,4.60002,2470.297,2021-9-09T05:14:01Z
2021-09-09T03:15:43Z,42.805,6.029,13.2993,4.60001,2470.334,2021-9-09T05:17:04Z
2021-09-09T03:18:47Z,42.805,6.029,13.2987,4.60001,2470.283,2021-9-09T05:20:07Z
2021-09-09T03:21:50Z,42.805,6.029,13.2990,4.60001,2470.273,2021-9-09T05:23:10Z
2021-09-09T03:24:53Z,42.805,6.029,13.2988,4.59999,2470.31,2021-9-09T05:26:13Z
2021-09-09T03:27:56Z,42.805,6.029,13.2990,4.60002,2470.32,2021-9-09T05:29:16Z
2021-09-09T03:30:59Z,42.805,6.029,13.2990,4.60003,2470.32,2021-9-09T05:32:20Z
2021-09-09T03:34:02Z,42.805,6.029,13.2991,4.60003,2470.334,2021-9-09T05:35:23Z
2021-09-09T03:37:05Z,42.805,6.029,13.2990,4.60003,2470.273,2021-9-09T05:38:26Z
2021-09-09T03:40:08Z,42.805,6.029,13.2994,4.60003,2470.334,2021-9-09T05:41:29Z
2021-09-09T03:43:12Z,42.805,6.029,13.2993,4.60004,2470.31,2021-9-09T05:44:32Z
2021-09-09T03:46:15Z,42.805,6.029,13.2992,4.60005,2470.32,2021-9-09T05:47:35Z
2021-09-09T03:49:18Z,42.805,6.029,13.2992,4.60003,2470.297,2021-9-09T05:50:38Z
2021-09-09T03:52:21Z,42.805,6.029,13.2990,4.60008,2470.297,2021-9-09T05:53:41Z
2021-09-09T03:55:24Z,42.805,6.029,13.2991,4.60004,2470.334,2021-9-09T05:56:45Z
2021-09-09T03:58:27Z,42.805,6.029,13.2986,4.60005,2470.343,2021-9-09T05:59:48Z
2021-09-09T04:01:30Z,42.805,6.029,13.2991,4.60003,2470.32,2021-9-09T06:02:51Z
2021-09-09T04:04:33Z,42.805,6.029,13.2988,4.60003,2470.357,2021-9-09T06:05:54Z
2021-09-09T04:07:36Z,42.805,6.029,13.2989,4.60007,2470.31,2021-9-09T06:08:57Z
2021-09-09T04:10:40Z,42.805,6.029,13.2991,4.60003,2470.31,2021-9-09T06:12:00Z
2021-09-09T04:13:43Z,42.805,6.029,13.2987,4.60002,2470.273,2021-9-09T06:15:03Z
2021-09-09T04:16:46Z,42.805,6.029,13.2991,4.60003,2470.334,2021-9-09T06:18:06Z
2021-09-09T04:19:49Z,42.805,6.029,13.2983,4.60005,2470.297,2021-9-09T06:21:09Z
2021-09-09T04:22:52Z,42.805,6.029,13.2991,4.60003,2470.343,2021-9-09T06:24:13Z
2021-09-09T04:25:55Z,42.805,6.029,13.2992,4.60006,2470.343,2021-9-09T06:27:16Z
2021-09-09T04:28:58Z,42.805,6.029,13.2989,4.60007,2470.32,2021-9-09T06:30:19Z
2021-09-09T04:32:01Z,42.805,6.029,13.2991,4.60005,2470.32,2021-9-09T06:33:22Z
2021-09-09T04:35:05Z,42.805,6.029,13.2988,4.60006,2470.357,2021-9-09T06:36:25Z
2021-09-09T04:38:08Z,42.805,6.029,13.2990,4.60011,2470.357,2021-9-09T06:39:28Z
2021-09-09T04:41:11Z,42.805,6.029,13.2990,4.60006,2470.366,2021-9-09T06:42:31Z
2021-09-09T04:44:14Z,42.805,6.029,13.2986,4.60016,2470.357,2021-9-09T06:45:34Z
2021-09-09T04:47:17Z,42.805,6.029,13.2990,4.60010,2470.343,2021-9-09T06:48:38Z
2021-09-09T04:50:20Z,42.805,6.029,13.2989,4.60009,2470.334,2021-9-09T06:51:41Z
2021-09-09T04:53:23Z,42.805,6.029,13.2990,4.60006,2470.38,2021-9-09T06:54:44Z
2021-09-09T04:56:26Z,42.805,6.029,13.2987,4.60009,2470.32,2021-9-09T06:57:47Z
2021-09-09T04:59:29Z,42.805,6.029,13.2992,4.60011,2470.343,2021-9-09T07:00:50Z
2021-09-09T05:02:33Z,42.805,6.029,13.2991,4.60009,2470.366,2021-9-09T07:03:53Z
2021-09-09T05:05:36Z,42.805,6.029,13.2989,4.60006,2470.38,2021-9-09T07:06:56Z
2021-09-09T05:08:39Z,42.805,6.029,13.2990,4.60005,2470.32,2021-9-09T07:09:59Z
2021-09-09T05:11:42Z,42.805,6.029,13.2990,4.60003,2470.39,2021-9-09T07:13:03Z
2021-09-09T05:14:45Z,42.805,6.029,13.2989,4.60005,2470.343,2021-9-09T07:16:06Z
2021-09-09T05:17:48Z,42.805,6.029,13.2995,4.60006,2470.353,2021-9-09T07:19:09Z
2021-09-09T05:20:51Z,42.805,6.029,13.2989,4.60005,2470.366,2021-9-09T07:22:12Z
2021-09-09T05:23:54Z,42.805,6.029,13.2991,4.60011,2470.404,2021-9-09T07:25:15Z
2021-09-09T05:26:58Z,42.805,6.029,13.2990,4.60005,2470.413,2021-9-09T07:28:18Z
2021-09-09T05:30:01Z,42.805,6.029,13.2992,4.60015,2470.366,2021-9-09T07:31:21Z
2021-09-09T05:33:04Z,42.805,6.029,13.2987,4.60006,2470.366,2021-9-09T07:34:24Z
2021-09-09T05:36:07Z,42.805,6.029,13.2993,4.60009,2470.404,2021-9-09T07:37:27Z
2021-09-09T05:39:10Z,42.805,6.029,13.2995,4.60006,2470.39,2021-9-09T07:40:31Z
2021-09-09T05:42:13Z,42.805,6.029,13.2993,4.60006,2470.39,2021-9-09T07:43:34Z
2021-09-09T05:45:16Z,42.805,6.029,13.2990,4.60006,2470.413,2021-9-09T07:46:37Z
2021-09-09T05:48:19Z,42.805,6.029,13.2991,4.60009,2470.427,2021-9-09T07:49:40Z
2021-09-09T05:51:22Z,42.805,6.029,13.2990,4.60009,2470.427,2021-9-09T07:52:43Z
2021-09-09T05:54:26Z,42.805,6.029,13.2987,4.60005,2470.427,2021-9-09T07:55:46Z
2021-09-09T05:57:29Z,42.805,6.029,13.2990,4.60003,2470.413,2021-9-09T07:58:49Z
2021-09-09T06:00:32Z,42.805,6.029,13.2989,4.60006,2470.39,2021-9-09T08:01:52Z
2021-09-09T06:03:35Z,42.805,6.029,13.2991,4.60011,2470.437,2021-9-09T08:04:56Z
2021-09-09T06:06:38Z,42.805,6.029,13.2993,4.60003,2470.413,2021-9-09T08:07:59Z
2021-09-09T06:09:41Z,42.805,6.029,13.2988,4.60005,2470.45,2021-9-09T08:11:02Z
2021-09-09T06:12:44Z,42.805,6.029,13.2993,4.60005,2470.45,2021-9-09T08:14:05Z
2021-09-09T06:15:47Z,42.805,6.029,13.2991,4.60004,2470.46,2021-9-09T08:17:08Z
2021-09-09T06:18:51Z,42.805,6.029,13.2989,4.60003,2470.497,2021-9-09T08:20:11Z
2021-09-09T06:21:54Z,42.805,6.029,13.2988,4.60005,2470.46,2021-9-09T08:23:14Z
2021-09-09T06:24:57Z,42.805,6.029,13.2990,4.60006,2470.437,2021-9-09T08:26:17Z
2021-09-09T06:28:00Z,42.805,6.029,13.2992,4.60005,2470.413,2021-9-09T08:29:20Z
2021-09-09T06:31:03Z,42.805,6.029,13.2993,4.60004,2470.437,2021-9-09T08:32:24Z
2021-09-09T06:34:06Z,42.805,6.029,13.2991,4.60005,2470.474,2021-9-09T08:35:27Z
2021-09-09T06:37:09Z,42.805,6.029,13.2985,4.60006,2470.483,2021-9-09T08:38:30Z
2021-09-09T06:40:12Z,42.805,6.029,13.2990,4.60005,2470.46,2021-9-09T08:41:33Z
2021-09-09T06:43:16Z,42.805,6.029,13.2991,4.60003,2470.483,2021-9-09T08:44:36Z
2021-09-09T06:46:19Z,42.805,6.029,13.2992,4.60007,2470.474,2021-9-09T08:47:39Z
2021-09-09T06:49:22Z,42.805,6.029,13.2988,4.60012,2470.437,2021-9-09T08:50:42Z
2021-09-09T06:52:25Z,42.805,6.029,13.2991,4.60008,2470.437,2021-9-09T08:53:45Z
2021-09-09T06:55:28Z,42.805,6.029,13.2996,4.60006,2470.474,2021-9-09T08:56:49Z
2021-09-09T06:58:31Z,42.805,6.029,13.2990,4.60005,2470.483,2021-9-09T08:59:52Z
2021-09-09T07:01:34Z,42.805,6.029,13.2991,4.60006,2470.483,2021-9-09T09:02:55Z
2021-09-09T07:04:37Z,42.805,6.029,13.2991,4.60007,2470.483,2021-9-09T09:05:58Z
2021-09-09T07:07:40Z,42.805,6.029,13.2991,4.60005,2470.497,2021-9-09T09:09:01Z
2021-09-09T07:10:44Z,42.805,6.029,13.2991,4.60003,2470.483,2021-9-09T09:12:04Z
2021-09-09T07:13:47Z,42.805,6.029,13.2993,4.60006,2470.511,2021-9-09T09:15:07Z
2021-09-09T07:16:50Z,42.805,6.029,13.2993,4.60003,2470.497,2021-9-09T09:18:10Z
2021-09-09T07:19:53Z,42.805,6.029,13.2992,4.60004,2470.437,2021-9-09T09:21:13Z
2021-09-09T07:22:56Z,42.805,6.029,13.2990,4.60004,2470.46,2021-9-09T09:24:17Z
2021-09-09T07:25:59Z,42.805,6.029,13.2992,4.60004,2470.483,2021-9-09T09:27:20Z
2021-09-09T07:29:02Z,42.805,6.029,13.2990,4.60005,2470.483,2021-9-09T09:30:23Z
2021-09-09T07:32:05Z,42.805,6.029,13.2991,4.60004,2470.483,2021-9-09T09:33:26Z
2021-09-09T07:35:09Z,42.805,6.029,13.2990,4.60005,2470.52,2021-9-09T09:36:29Z
2021-09-09T07:38:12Z,42.805,6.029,13.2989,4.60005,2470.483,2021-9-09T09:39:32Z
2021-09-09T07:41:15Z,42.805,6.029,13.2993,4.60005,2470.46,2021-9-09T09:42:35Z
2021-09-09T07:44:18Z,42.805,6.029,13.2988,4.60006,2470.52,2021-9-09T09:45:38Z
2021-09-09T07:47:21Z,42.805,6.029,13.2996,4.60006,2470.483,2021-9-09T09:48:42Z
2021-09-09T07:50:24Z,42.805,6.029,13.2991,4.60003,2470.507,2021-9-09T09:51:45Z
2021-09-09T07:53:27Z,42.805,6.029,13.2993,4.60004,2470.483,2021-9-09T09:54:48Z
2021-09-09T07:56:30Z,42.805,6.029,13.2991,4.60005,2470.483,2021-9-09T09:57:51Z
2021-09-09T07:59:34Z,42.805,6.029,13.2990,4.60006,2470.46,2021-9-09T10:00:54Z
2021-09-09T08:02:37Z,42.805,6.029,13.2993,4.60006,2470.52,2021-9-09T10:03:57Z
2021-09-09T08:05:40Z,42.805,6.029,13.2994,4.60009,2470.507,2021-9-09T10:07:00Z
2021-09-09T08:08:43Z,42.805,6.029,13.2995,4.60007,2470.52,2021-9-09T10:10:03Z
2021-09-09T08:11:46Z,42.805,6.029,13.2992,4.60004,2470.483,2021-9-09T10:13:06Z
2021-09-09T08:14:49Z,42.805,6.029,13.2994,4.60007,2470.483,2021-9-09T10:16:10Z
2021-09-09T08:17:52Z,42.805,6.029,13.2994,4.60005,2470.507,2021-9-09T10:19:13Z
2021-09-09T08:20:55Z,42.805,6.029,13.2992,4.60004,2470.507,2021-9-09T10:22:16Z
2021-09-09T08:23:58Z,42.805,6.029,13.2992,4.60005,2470.544,2021-9-09T10:25:19Z
2021-09-09T08:27:02Z,42.805,6.029,13.2993,4.60006,2470.507,2021-9-09T10:28:22Z
2021-09-09T08:30:05Z,42.805,6.029,13.2993,4.60005,2470.507,2021-9-09T10:31:25Z
2021-09-09T08:33:08Z,42.805,6.029,13.2992,4.60006,2470.53,2021-9-09T10:34:28Z
2021-09-09T08:36:11Z,42.805,6.029,13.2992,4.60007,2470.544,2021-9-09T10:37:31Z
2021-09-09T08:39:14Z,42.805,6.029,13.2993,4.60009,2470.507,2021-9-09T10:40:35Z
2021-09-09T08:42:17Z,42.805,6.029,13.2990,4.60005,2470.53,2021-9-09T10:43:38Z
2021-09-09T08:45:20Z,42.805,6.029,13.2990,4.60006,2470.483,2021-9-09T10:46:41Z
2021-09-09T08:48:23Z,42.805,6.029,13.2993,4.60006,2470.46,2021-9-09T10:49:44Z
2021-09-09T08:51:27Z,42.805,6.029,13.2991,4.60004,2470.544,2021-9-09T10:52:47Z
2021-09-09T08:54:30Z,42.805,6.029,13.2996,4.60007,2470.544,2021-9-09T10:55:50Z
2021-09-09T08:57:33Z,42.805,6.029,13.2997,4.60007,2470.497,2021-9-09T10:58:53Z
2021-09-09T09:00:36Z,42.805,6.029,13.2997,4.60006,2470.544,2021-9-09T11:01:56Z
2021-09-09T09:03:39Z,42.805,6.029,13.2996,4.60007,2470.483,2021-9-09T11:05:00Z
2021-09-09T09:06:42Z,42.805,6.029,13.2990,4.60008,2470.53,2021-9-09T11:08:03Z
2021-09-09T09:09:45Z,42.805,6.029,13.2992,4.60007,2470.52,2021-9-09T11:11:06Z
2021-09-09T09:12:48Z,42.805,6.029,13.2991,4.60008,2470.483,2021-9-09T11:14:09Z
2021-09-09T09:15:52Z,42.805,6.029,13.2991,4.60005,2470.52,2021-9-09T11:17:12Z
2021-09-09T09:18:55Z,42.805,6.029,13.2992,4.60005,2470.507,2021-9-09T11:20:15Z
2021-09-09T09:21:58Z,42.805,6.029,13.2993,4.60005,2470.497,2021-9-09T11:23:18Z
2021-09-09T09:25:01Z,42.805,6.029,13.2990,4.60007,2470.52,2021-9-09T11:26:21Z
2021-09-09T09:28:04Z,42.805,6.029,13.2991,4.60005,2470.507,2021-9-09T11:29:25Z
2021-09-09T09:31:07Z,42.805,6.029,13.2990,4.60005,2470.52,2021-9-09T11:32:28Z
2021-09-09T09:34:10Z,42.805,6.029,13.2991,4.60005,2470.507,2021-9-09T11:35:31Z
2021-09-09T09:37:13Z,42.805,6.029,13.2991,4.60009,2470.52,2021-9-09T11:38:34Z
2021-09-09T09:40:17Z,42.805,6.029,13.2993,4.60010,2470.507,2021-9-09T11:41:37Z
2021-09-09T09:43:20Z,42.805,6.029,13.2993,4.60005,2470.507,2021-9-09T11:44:40Z
2021-09-09T09:46:23Z,42.805,6.029,13.2997,4.60004,2470.497,2021-9-09T11:47:43Z
2021-09-09T09:49:26Z,42.805,6.029,13.2991,4.60006,2470.507,2021-9-09T11:50:46Z
2021-09-09T09:52:29Z,42.805,6.029,13.2987,4.60009,2470.52,2021-9-09T11:53:50Z
2021-09-09T09:55:32Z,42.805,6.029,13.2990,4.60007,2470.507,2021-9-09T11:56:53Z
2021-09-09T09:58:35Z,42.805,6.029,13.2993,4.60006,2470.497,2021-9-09T11:59:56Z
2021-09-09T10:01:38Z,42.805,6.029,13.2995,4.60007,2470.507,2021-9-09T12:02:59Z
2021-09-09T10:04:42Z,42.805,6.029,13.2993,4.60007,2470.497,2021-9-09T12:06:02Z
2021-09-09T10:07:45Z,42.805,6.029,13.2993,4.60009,2470.483,2021-9-09T12:09:05Z
2021-09-09T10:10:48Z,42.805,6.029,13.2990,4.60005,2470.483,2021-9-09T12:12:08Z
2021-09-09T10:13:51Z,42.805,6.029,13.2990,4.60005,2470.46,2021-9-09T12:15:11Z
2021-09-09T10:16:54Z,42.805,6.029,13.2995,4.60009,2470.483,2021-9-09T12:18:15Z
2021-09-09T10:19:57Z,42.805,6.029,13.2994,4.60007,2470.483,2021-9-09T12:21:18Z
2021-09-09T10:23:00Z,42.805,6.029,13.2989,4.60008,2470.46,2021-9-09T12:24:21Z
2021-09-09T10:26:03Z,42.805,6.029,13.2993,4.60006,2470.483,2021-9-09T12:27:24Z
2021-09-09T10:29:07Z,42.805,6.029,13.2993,4.60005,2470.497,2021-9-09T12:30:27Z
2021-09-09T10:32:10Z,42.805,6.029,13.2993,4.60006,2470.507,2021-9-09T12:33:30Z
2021-09-09T10:35:13Z,42.805,6.029,13.2992,4.60006,2470.483,2021-9-09T12:36:33Z
2021-09-09T10:38:16Z,42.805,6.029,13.2991,4.60005,2470.46,2021-9-09T12:39:36Z
2021-09-09T10:41:19Z,42.805,6.029,13.2993,4.60006,2470.46,2021-9-09T12:42:40Z
2021-09-09T10:44:22Z,42.805,6.029,13.2989,4.60005,2470.483,2021-9-09T12:45:43Z
2021-09-09T10:47:25Z,42.805,6.029,13.2991,4.60005,2470.437,2021-9-09T12:48:46Z
2021-09-09T10:50:28Z,42.805,6.029,13.2992,4.60005,2470.437,2021-9-09T12:51:49Z
2021-09-09T10:53:32Z,42.805,6.029,13.2991,4.60004,2470.45,2021-9-09T12:54:52Z
2021-09-09T10:56:35Z,42.805,6.029,13.2990,4.60005,2470.474,2021-9-09T12:57:55Z
2021-09-09T10:59:38Z,42.805,6.029,13.2989,4.60006,2470.474,2021-9-09T13:00:58Z
2021-09-09T11:02:41Z,42.805,6.029,13.2990,4.60006,2470.46,2021-9-09T13:04:01Z
2021-09-09T11:05:44Z,42.805,6.029,13.2990,4.60005,2470.474,2021-9-09T13:07:05Z
2021-09-09T11:08:47Z,42.805,6.029,13.2989,4.60005,2470.437,2021-9-09T13:10:08Z
2021-09-09T11:11:50Z,42.805,6.029,13.2991,4.60007,2470.437,2021-9-09T13:13:11Z
2021-09-09T11:14:53Z,42.805,6.029,13.2990,4.60005,2470.497,2021-9-09T13:16:14Z
2021-09-09T11:17:57Z,42.805,6.029,13.2993,4.60004,2470.437,2021-9-09T13:19:17Z
2021-09-09T11:21:00Z,42.805,6.029,13.2992,4.60005,2470.413,2021-9-09T13:22:20Z
2021-09-09T11:24:03Z,42.805,6.029,13.2994,4.60014,2470.39,2021-9-09T13:25:23Z
2021-09-09T11:27:06Z,42.805,6.029,13.2992,4.60006,2470.413,2021-9-09T13:28:26Z
2021-09-09T11:30:09Z,42.805,6.029,13.2992,4.60006,2470.404,2021-9-09T13:31:30Z
2021-09-09T11:33:12Z,42.805,6.029,13.2990,4.60006,2470.427,2021-9-09T13:34:33Z
2021-09-09T11:36:15Z,42.805,6.029,13.2990,4.60006,2470.427,2021-9-09T13:37:36Z
2021-09-09T11:39:18Z,42.805,6.029,13.2990,4.60005,2470.437,2021-9-09T13:40:39Z
2021-09-09T11:42:21Z,42.805,6.029,13.2993,4.60005,2470.427,2021-9-09T13:43:42Z
2021-09-09T11:45:25Z,42.805,6.029,13.2992,4.60005,2470.39,2021-9-09T13:46:45Z
2021-09-09T11:48:28Z,42.805,6.029,13.2990,4.60005,2470.39,2021-9-09T13:49:48Z
2021-09-09T11:51:31Z,42.805,6.029,13.2995,4.60006,2470.413,2021-9-09T13:52:51Z
2021-09-09T11:54:34Z,42.805,6.029,13.2994,4.60019,2470.39,2021-9-09T13:55:55Z
2021-09-09T11:57:37Z,42.805,6.029,13.2990,4.60007,2470.39,2021-9-09T13:58:58Z
2021-09-09T12:00:40Z,42.805,6.029,13.2994,4.60005,2470.404,2021-9-09T14:02:01Z
2021-09-09T12:03:43Z,42.805,6.029,13.2993,4.60006,2470.366,2021-9-09T14:05:04Z
2021-09-09T12:06:46Z,42.805,6.029,13.2993,4.60005,2470.39,2021-9-09T14:08:07Z
2021-09-09T12:09:50Z,42.805,6.029,13.2990,4.60005,2470.39,2021-9-09T14:11:10Z
2021-09-09T12:12:53Z,42.805,6.029,13.2992,4.60004,2470.366,2021-9-09T14:14:13Z
2021-09-09T12:15:56Z,42.805,6.029,13.2993,4.60006,2470.39,2021-9-09T14:17:16Z
2021-09-09T12:18:59Z,42.805,6.029,13.2991,4.60006,2470.38,2021-9-09T14:20:19Z
2021-09-09T12:22:02Z,42.805,6.029,13.2993,4.60006,2470.343,2021-9-09T14:23:23Z
2021-09-09T12:25:05Z,42.805,6.029,13.2991,4.60006,2470.366,2021-9-09T14:26:26Z
2021-09-09T12:28:08Z,42.805,6.029,13.2993,4.60005,2470.39,2021-9-09T14:29:29Z
2021-09-09T12:31:11Z,42.805,6.029,13.2993,4.60006,2470.366,2021-9-09T14:32:32Z
2021-09-09T12:34:15Z,42.805,6.029,13.2991,4.60006,2470.38,2021-9-09T14:35:35Z
2021-09-09T12:37:18Z,42.805,6.029,13.2992,4.60005,2470.39,2021-9-09T14:38:38Z
2021-09-09T12:40:21Z,42.805,6.029,13.2993,4.60007,2470.38,2021-9-09T14:41:41Z
2021-09-09T12:43:24Z,42.805,6.029,13.2994,4.60005,2470.38,2021-9-09T14:44:44Z
2021-09-09T12:46:27Z,42.805,6.029,13.2993,4.60008,2470.366,2021-9-09T14:47:48Z
2021-09-09T12:49:30Z,42.805,6.029,13.2996,4.60006,2470.343,2021-9-09T14:50:51Z
2021-09-09T12:52:33Z,42.805,6.029,13.2993,4.60006,2470.343,2021-9-09T14:53:54Z
2021-09-09T12:55:36Z,42.805,6.029,13.2994,4.60008,2470.343,2021-9-09T14:56:57Z
2021-09-09T12:58:40Z,42.805,6.029,13.2993,4.60006,2470.38,2021-9-09T15:00:00Z
2021-09-09T13:01:43Z,42.805,6.029,13.2997,4.60006,2470.38,2021-9-09T15:03:03Z
2021-09-09T13:04:46Z,42.805,6.029,13.2993,4.60007,2470.357,2021-9-09T15:06:06Z
2021-09-09T13:07:49Z,42.805,6.029,13.2994,4.60005,2470.38,2021-9-09T15:09:09Z
2021-09-09T13:10:52Z,42.805,6.029,13.2993,4.60007,2470.357,2021-9-09T15:12:13Z
2021-09-09T13:13:55Z,42.805,6.029,13.2991,4.60006,2470.343,2021-9-09T15:15:16Z
2021-09-09T13:16:58Z,42.805,6.029,13.2997,4.60007,2470.32,2021-9-09T15:18:19Z
2021-09-09T13:20:01Z,42.805,6.029,13.2990,4.60006,2470.343,2021-9-09T15:21:22Z
2021-09-09T13:23:05Z,42.805,6.029,13.2990,4.60006,2470.357,2021-9-09T15:24:25Z
2021-09-09T13:26:08Z,42.805,6.029,13.2994,4.60006,2470.343,2021-9-09T15:27:28Z
2021-09-09T13:29:11Z,42.805,6.029,13.2996,4.60011,2470.366,2021-9-09T15:30:31Z
2021-09-09T13:32:14Z,42.805,6.029,13.2989,4.60006,2470.366,2021-9-09T15:33:34Z
2021-09-09T13:35:17Z,42.805,6.029,13.2991,4.60007,2470.366,2021-9-09T15:36:38Z
2021-09-09T13:38:20Z,42.805,6.029,13.2992,4.60009,2470.366,2021-9-09T15:39:41Z
2021-09-09T13:41:23Z,42.805,6.029,13.2990,4.60005,2470.343,2021-9-09T15:42:44Z
2021-09-09T13:44:26Z,42.805,6.029,13.2993,4.60006,2470.32,2021-9-09T15:45:47Z
2021-09-09T13:47:30Z,42.805,6.029,13.2993,4.60006,2470.38,2021-9-09T15:48:50Z
2021-09-09T13:50:33Z,42.805,6.029,13.2992,4.60006,2470.38,2021-9-09T15:51:53Z
2021-09-09T13:53:36Z,42.805,6.029,13.2993,4.60005,2470.357,2021-9-09T15:54:56Z
2021-09-09T13:56:39Z,42.805,6.029,13.2993,4.60009,2470.32,2021-9-09T15:57:59Z
2021-09-09T13:59:42Z,42.805,6.029,13.2990,4.60005,2470.33,2021-9-09T16:01:03Z
2021-09-09T14:02:45Z,42.805,6.029,13.2991,4.60005,2470.357,2021-9-09T16:04:06Z
2021-09-09T14:05:48Z,42.805,6.029,13.2993,4.60006,2470.32,2021-9-09T16:07:09Z
2021-09-09T14:08:51Z,42.805,6.029,13.2996,4.60006,2470.32,2021-9-09T16:10:12Z
2021-09-09T14:11:54Z,42.805,6.029,13.2994,4.60005,2470.343,2021-9-09T16:13:15Z
2021-09-09T14:14:58Z,42.805,6.029,13.2993,4.60006,2470.31,2021-9-09T16:16:18Z
2021-09-09T14:18:01Z,42.805,6.029,13.2995,4.60013,2470.32,2021-9-09T16:19:21Z
2021-09-09T14:21:04Z,42.805,6.029,13.2996,4.60005,2470.343,2021-9-09T16:22:24Z
2021-09-09T14:24:07Z,42.805,6.029,13.2992,4.60006,2470.343,2021-9-09T16:25:27Z
2021-09-09T14:27:10Z,42.805,6.029,13.2994,4.60006,2470.334,2021-9-09T16:28:31Z
2021-09-09T14:30:13Z,42.805,6.029,13.2993,4.60005,2470.343,2021-9-09T16:31:34Z
2021-09-09T14:33:16Z,42.805,6.029,13.2991,4.60006,2470.297,2021-9-09T16:34:37Z
2021-09-09T14:36:19Z,42.805,6.029,13.2992,4.60005,2470.297,2021-9-09T16:37:40Z
2021-09-09T14:39:23Z,42.805,6.029,13.2996,4.60005,2470.297,2021-9-09T16:40:43Z
2021-09-09T14:42:26Z,42.805,6.029,13.2991,4.60006,2470.31,2021-9-09T16:43:46Z
2021-09-09T14:45:29Z,42.805,6.029,13.2991,4.60006,2470.31,2021-9-09T16:46:49Z
2021-09-09T14:48:32Z,42.805,6.029,13.2993,4.60004,2470.31,2021-9-09T16:49:53Z
2021-09-09T14:51:35Z,42.805,6.029,13.2994,4.60005,2470.297,2021-9-09T16:52:56Z
2021-09-09T14:54:38Z,42.805,6.029,13.2993,4.60006,2470.32,2021-9-09T16:55:59Z
2021-09-09T14:57:41Z,42.805,6.029,13.2992,4.60010,2470.334,2021-9-09T16:59:02Z
2021-09-09T15:00:44Z,42.805,6.029,13.2993,4.60005,2470.334,2021-9-09T17:02:05Z
2021-09-09T15:03:48Z,42.805,6.029,13.2993,4.60006,2470.32,2021-9-09T17:05:08Z
2021-09-09T15:06:51Z,42.805,6.029,13.2992,4.60010,2470.32,2021-9-09T17:08:11Z
2021-09-09T15:09:54Z,42.805,6.029,13.2991,4.60013,2470.297,2021-9-09T17:11:14Z
2021-09-09T15:12:57Z,42.805,6.029,13.2991,4.60007,2470.32,2021-9-09T17:14:17Z